When you browse on this site, cookies collect data to enhance your experience and personalize the content and advertising you see.
Visit our Privacy Policy to learn more. By continuing to use the site, you agree to this use of cookies and data.
  • En España
  • Lista de países
  • Para 7 días
  • Temperatura del agua
  • El tiempo en el mapa
  • Informadores
  • user-avatar
    Iniciar sesión

    Tiempo cada hora El Guna

    Hoy, 20 Octubre, Domingo

    Tiempo Temperatura Precipitaciones Viento Presión Humedad
    00:00 +26°C° 0 mm 3 mps 734 mmHg 33%
    01:00 +26°C° 0 mm 3 mps 734 mmHg 33%
    02:00 +25°C° 0 mm 2 mps 734 mmHg 33%
    03:00 +25°C° 0 mm 2 mps 734 mmHg 33%
    04:00 +24°C° 0 mm 2 mps 734 mmHg 33%
    05:00 +24°C° 0 mm 2 mps 734 mmHg 33%
    06:00 +26°C° 0 mm 2 mps 734 mmHg 29%
    07:00 +28°C° 0 mm 3 mps 734 mmHg 25%
    08:00 +30°C° 0 mm 3 mps 735 mmHg 22%
    09:00 +33°C° 0 mm 3 mps 735 mmHg 19%
    10:00 +34°C° 0 mm 3 mps 735 mmHg 17%
    11:00 +36°C° 0 mm 4 mps 735 mmHg 15%
    12:00 +36°C° 0 mm 4 mps 735 mmHg 14%
    13:00 +37°C° 0 mm 5 mps 734 mmHg 14%
    14:00 +38°C° 0 mm 6 mps 733 mmHg 13%
    15:00 +35°C° 0 mm 5 mps 733 mmHg 17%
    16:00 +34°C° 0 mm 4 mps 733 mmHg 20%
    17:00 +32°C° 0 mm 4 mps 733 mmHg 23%
    18:00 +30°C° 0 mm 4 mps 734 mmHg 25%
    19:00 +29°C° 0 mm 4 mps 734 mmHg 27%
    20:00 +28°C° 0 mm 4 mps 734 mmHg 28%
    21:00 +27°C° 0 mm 4 mps 734 mmHg 30%
    22:00 +27°C° 0 mm 3 mps 734 mmHg 32%
    23:00 +26°C° 0 mm 3 mps 734 mmHg 34%

    Mañana, 21 Octubre, Lunes

    Tiempo Temperatura Precipitaciones Viento Presión Humedad
    00:00 +26°C° 0 mm 3 mps 734 mmHg 34%
    01:00 +26°C° 0 mm 3 mps 733 mmHg 34%
    02:00 +26°C° 0 mm 3 mps 733 mmHg 34%
    03:00 +25°C° 0 mm 3 mps 733 mmHg 35%
    04:00 +25°C° 0 mm 2 mps 733 mmHg 37%
    05:00 +24°C° 0 mm 2 mps 733 mmHg 38%
    06:00 +26°C° 0 mm 2 mps 733 mmHg 35%
    07:00 +28°C° 0 mm 2 mps 734 mmHg 31%
    08:00 +30°C° 0 mm 2 mps 734 mmHg 27%
    09:00 +31°C° 0 mm 3 mps 734 mmHg 25%
    10:00 +34°C° 0 mm 3 mps 734 mmHg 22%
    11:00 +35°C° 0 mm 4 mps 734 mmHg 20%
    12:00 +36°C° 0 mm 4 mps 733 mmHg 20%
    13:00 +36°C° 0 mm 5 mps 732 mmHg 19%
    14:00 +37°C° 0 mm 5 mps 732 mmHg 19%
    15:00 +34°C° 0 mm 4 mps 731 mmHg 24%
    16:00 +31°C° 0 mm 2 mps 731 mmHg 29%
    17:00 +29°C° 0 mm 1 mps 731 mmHg 34%
    18:00 +28°C° 0 mm 1 mps 731 mmHg 34%
    19:00 +27°C° 0 mm 1 mps 731 mmHg 35%
    20:00 +27°C° 0 mm 1 mps 731 mmHg 36%
    21:00 +26°C° 0 mm 1 mps 731 mmHg 35%
    22:00 +26°C° 0 mm 1 mps 731 mmHg 34%
    23:00 +26°C° 0 mm 1 mps 731 mmHg 34%

    Pasado mañana, 22 Octubre, Martes

    Tiempo Temperatura Precipitaciones Viento Presión Humedad
    00:00 +25°C° 0 mm 1 mps 731 mmHg 35%
    01:00 +25°C° 0 mm 2 mps 730 mmHg 37%
    02:00 +25°C° 0 mm 2 mps 730 mmHg 38%
    03:00 +25°C° 0 mm 2 mps 730 mmHg 41%
    04:00 +24°C° 0 mm 2 mps 730 mmHg 43%
    05:00 +24°C° 0 mm 2 mps 730 mmHg 46%
    06:00 +26°C° 0 mm 2 mps 731 mmHg 41%
    07:00 +27°C° 0 mm 3 mps 731 mmHg 35%
    08:00 +29°C° 0 mm 3 mps 732 mmHg 30%
    09:00 +30°C° 0 mm 4 mps 732 mmHg 27%
    10:00 +33°C° 0 mm 4 mps 732 mmHg 23%
    11:00 +34°C° 0 mm 5 mps 732 mmHg 20%
    12:00 +34°C° 0 mm 6 mps 731 mmHg 21%
    13:00 +34°C° 0 mm 7 mps 731 mmHg 21%
    14:00 +35°C° 0 mm 8 mps 730 mmHg 21%
    15:00 +32°C° 0 mm 7 mps 730 mmHg 29%
    16:00 +29°C° 0 mm 7 mps 730 mmHg 38%
    17:00 +27°C° 0 mm 6 mps 730 mmHg 46%
    18:00 +25°C° 0 mm 5 mps 731 mmHg 54%
    19:00 +23°C° 0 mm 4 mps 731 mmHg 62%
    20:00 +21°C° 0 mm 3 mps 731 mmHg 69%
    21:00 +21°C° 0 mm 2 mps 731 mmHg 71%
    22:00 +20°C° 0 mm 2 mps 731 mmHg 73%
    23:00 +20°C° 0 mm 2 mps 731 mmHg 74%

    23 Octubre, Miércoles

    Tiempo Temperatura Precipitaciones Viento Presión Humedad
    00:00 +20°C° 0 mm 2 mps 731 mmHg 74%
    01:00 +19°C° 0 mm 2 mps 731 mmHg 74%
    02:00 +20°C° 0 mm 1 mps 731 mmHg 73%
    03:00 +20°C° 0 mm 1 mps 731 mmHg 74%
    04:00 +19°C° 0 mm 1 mps 731 mmHg 75%
    05:00 +19°C° 0 mm 1 mps 731 mmHg 76%
    06:00 +21°C° 0 mm 1 mps 732 mmHg 66%
    07:00 +23°C° 0 mm 1 mps 732 mmHg 57%
    08:00 +25°C° 0 mm 1 mps 733 mmHg 47%
    09:00 +26°C° 0 mm 2 mps 733 mmHg 41%
    10:00 +28°C° 0 mm 2 mps 733 mmHg 34%
    11:00 +29°C° 0 mm 2 mps 733 mmHg 28%
    12:00 +30°C° 0 mm 3 mps 732 mmHg 27%
    13:00 +30°C° 0 mm 4 mps 732 mmHg 26%
    14:00 +32°C° 0 mm 5 mps 731 mmHg 25%
    15:00 +29°C° 0 mm 4 mps 731 mmHg 29%
    16:00 +28°C° 0 mm 3 mps 731 mmHg 34%
    17:00 +26°C° 0 mm 3 mps 731 mmHg 39%
    18:00 +25°C° 0 mm 2 mps 731 mmHg 43%
    19:00 +23°C° 0 mm 2 mps 732 mmHg 48%
    20:00 +22°C° 0 mm 1 mps 732 mmHg 52%
    21:00 +21°C° 0 mm 1 mps 732 mmHg 51%
    22:00 +21°C° 0 mm 1 mps 732 mmHg 50%
    23:00 +21°C° 0 mm 1 mps 732 mmHg 49%

    24 Octubre, Jueves

    Tiempo Temperatura Precipitaciones Viento Presión Humedad
    00:00 +20°C° 0 mm 1 mps 732 mmHg 49%
    01:00 +20°C° 0 mm 1 mps 731 mmHg 49%
    02:00 +19°C° 0 mm 1 mps 731 mmHg 49%
    03:00 +19°C° 0 mm 1 mps 731 mmHg 50%
    04:00 +19°C° 0 mm 1 mps 731 mmHg 50%
    05:00 +19°C° 0 mm 1 mps 731 mmHg 51%
    06:00 +21°C° 0 mm 1 mps 732 mmHg 45%
    07:00 +24°C° 0 mm 1 mps 732 mmHg 39%
    08:00 +26°C° 0 mm 1 mps 733 mmHg 33%
    09:00 +27°C° 0 mm 2 mps 733 mmHg 29%
    10:00 +28°C° 0 mm 2 mps 733 mmHg 25%
    11:00 +29°C° 0 mm 2 mps 733 mmHg 22%
    12:00 +30°C° 0 mm 3 mps 732 mmHg 22%
    13:00 +30°C° 0 mm 4 mps 732 mmHg 22%
    14:00 +32°C° 0 mm 5 mps 731 mmHg 22%
    15:00 +29°C° 0 mm 4 mps 731 mmHg 26%
    16:00 +27°C° 0 mm 2 mps 731 mmHg 30%
    17:00 +25°C° 0 mm 1 mps 731 mmHg 34%
    18:00 +24°C° 0 mm 1 mps 731 mmHg 37%
    19:00 +23°C° 0 mm 1 mps 732 mmHg 40%
    20:00 +21°C° 0 mm 1 mps 732 mmHg 43%
    21:00 +21°C° 0 mm 1 mps 732 mmHg 43%
    22:00 +21°C° 0 mm 1 mps 732 mmHg 43%
    23:00 +20°C° 0 mm 1 mps 732 mmHg 43%

    25 Octubre, Viernes

    Tiempo Temperatura Precipitaciones Viento Presión Humedad
    00:00 +20°C° 0 mm 1 mps 731 mmHg 43%
    01:00 +20°C° 0 mm 1 mps 731 mmHg 44%
    02:00 +19°C° 0 mm 1 mps 731 mmHg 45%
    03:00 +19°C° 0 mm 1 mps 731 mmHg 46%
    04:00 +19°C° 0 mm 1 mps 731 mmHg 47%
    05:00 +18°C° 0 mm 1 mps 731 mmHg 48%
    06:00 +19°C° 0 mm 0 mps 731 mmHg 42%
    07:00 +21°C° 0 mm 0 mps 732 mmHg 36%
    08:00 +24°C° 0 mm 0 mps 732 mmHg 29%
    09:00 +27°C° 0 mm 1 mps 732 mmHg 27%
    10:00 +28°C° 0 mm 2 mps 733 mmHg 25%
    11:00 +30°C° 0 mm 2 mps 733 mmHg 22%
    12:00 +30°C° 0 mm 3 mps 732 mmHg 23%
    13:00 +30°C° 0 mm 3 mps 732 mmHg 24%
    14:00 +30°C° 0 mm 4 mps 731 mmHg 24%
    15:00 +29°C° 0 mm 3 mps 731 mmHg 30%
    16:00 +27°C° 0 mm 3 mps 731 mmHg 36%
    17:00 +25°C° 0 mm 2 mps 731 mmHg 41%
    18:00 +24°C° 0 mm 2 mps 731 mmHg 45%
    19:00 +23°C° 0 mm 2 mps 731 mmHg 48%
    20:00 +22°C° 0 mm 1 mps 732 mmHg 52%
    21:00 +21°C° 0 mm 1 mps 732 mmHg 50%
    22:00 +21°C° 0 mm 1 mps 732 mmHg 48%
    23:00 +21°C° 0 mm 1 mps 732 mmHg 46%
    Mostrar más